| time (UTC) | temp F | wind direction | speed MPH | gust MPH | rain 1hr in | rain 24hr in | rain mn in | humidity % | barometer mb |
| 20260904023405 | 82 | 204 | 0.0 | 0.0 | 0.00 | 0.00 | 0.00 | 69 | 1014.1 |
| 20260904022905 | 83 | 204 | 0.0 | 0.0 | 0.00 | 0.00 | 0.00 | 67 | 1014.0 |
| 20260904022405 | 83 | 204 | 0.0 | 0.0 | 0.00 | 0.00 | 0.00 | 67 | 1014.0 |
| 20260904021905 | 83 | 204 | 0.0 | 0.0 | 0.00 | 0.00 | 0.00 | 67 | 1014.0 |
| 20260904021405 | 83 | 204 | 0.0 | 0.0 | 0.00 | 0.00 | 0.00 | 66 | 1013.9 |
| 20260904020904 | 84 | 204 | 0.0 | 0.0 | 0.00 | 0.00 | 0.00 | 66 | 1014.0 |
| 20260904020405 | 84 | 204 | 0.0 | 0.0 | 0.00 | 0.00 | 0.00 | 65 | 1013.9 |
| 20260904015905 | 84 | 204 | 0.0 | 0.0 | 0.00 | 0.00 | 0.00 | 64 | 1013.9 |
| 20260904015404 | 85 | 204 | 0.0 | 0.0 | 0.00 | 0.00 | 0.00 | 64 | 1013.8 |
| 20260904014905 | 85 | 204 | 0.0 | 0.0 | 0.00 | 0.00 | 0.00 | 63 | 1013.8 |
| 20260904014405 | 85 | 204 | 0.0 | 0.0 | 0.00 | 0.00 | 0.00 | 62 | 1013.7 |
| 20260904013905 | 85 | 204 | 0.0 | 0.0 | 0.00 | 0.00 | 0.00 | 62 | 1013.8 |
| 20260904013405 | 85 | 204 | 0.0 | 0.0 | 0.00 | 0.00 | 0.00 | 61 | 1013.7 |
| 20260904012905 | 86 | 204 | 0.0 | 0.0 | 0.00 | 0.00 | 0.00 | 61 | 1013.7 |
| 20260904012405 | 86 | 204 | 0.0 | 0.0 | 0.00 | 0.00 | 0.00 | 60 | 1013.7 |
| 20260904011405 | 87 | 204 | 0.0 | 0.0 | 0.00 | 0.00 | 0.00 | 59 | 1013.6 |
| 20260904010904 | 87 | 204 | 0.0 | 0.0 | 0.00 | 0.00 | 0.00 | 58 | 1013.5 |
| 20260904010404 | 88 | 204 | 0.0 | 0.0 | 0.00 | 0.00 | 0.00 | 58 | 1013.5 |
| 20260904005905 | 88 | 204 | 0.0 | 0.0 | 0.00 | 0.00 | 0.00 | 57 | 1013.5 |
| 20260904005405 | 89 | 204 | 0.0 | 0.0 | 0.00 | 0.00 | 0.00 | 56 | 1013.4 |
| 20260904004405 | 89 | 204 | 0.0 | 0.0 | 0.00 | 0.00 | 0.00 | 55 | 1013.4 |
| 20260904003905 | 90 | 204 | 0.0 | 0.0 | 0.00 | 0.00 | 0.00 | 54 | 1013.3 |
| 20260904003405 | 90 | 204 | 0.0 | 0.0 | 0.00 | 0.00 | 0.00 | 53 | 1013.3 |
| 20260904002904 | 91 | 204 | 0.0 | 0.0 | 0.00 | 0.00 | 0.00 | 53 | 1013.2 |
| 20260904002404 | 91 | 204 | 0.0 | 0.0 | 0.00 | 0.00 | 0.00 | 53 | 1013.2 |
| 20260904001904 | 91 | 204 | 0.0 | 0.0 | 0.00 | 0.00 | 0.00 | 52 | 1013.1 |
| 20260903235905 | 93 | 204 | 0.0 | 0.0 | 0.00 | 0.00 | 0.00 | 49 | 1013.1 |
| 20260903235405 | 94 | 204 | 0.0 | 0.0 | 0.00 | 0.00 | 0.00 | 49 | 1013.0 |
| 20260903234904 | 94 | 198 | 0.0 | 0.0 | 0.00 | 0.00 | 0.00 | 48 | 1013.0 |
| 20260903234404 | 95 | 198 | 0.0 | 0.0 | 0.00 | 0.00 | 0.00 | 47 | 1013.0 |
| 20260903233905 | 95 | 207 | 0.0 | 0.0 | 0.00 | 0.00 | 0.00 | 46 | 1012.9 |
| 20260903233405 | 96 | 207 | 0.0 | 0.0 | 0.00 | 0.00 | 0.00 | 45 | 1012.9 |
| 20260903232905 | 96 | 209 | 0.0 | 0.0 | 0.00 | 0.00 | 0.00 | 45 | 1012.9 |
| 20260903232404 | 96 | 124 | 0.0 | 0.0 | 0.00 | 0.00 | 0.00 | 45 | 1012.9 |
| 20260903231905 | 96 | 223 | 0.0 | 0.0 | 0.00 | 0.00 | 0.00 | 45 | 1012.9 |
| 20260903231405 | 95 | 208 | 0.0 | 0.0 | 0.00 | 0.00 | 0.00 | 45 | 1012.8 |
| 20260903230905 | 95 | 211 | 0.0 | 0.0 | 0.00 | 0.00 | 0.00 | 45 | 1012.9 |
| 20260903230404 | 96 | 211 | 0.0 | 0.0 | 0.00 | 0.00 | 0.00 | 44 | 1012.8 |
| 20260903225405 | 96 | 219 | 1.0 | 5.0 | 0.00 | 0.00 | 0.00 | 43 | 1012.8 |
| 20260903224904 | 97 | 182 | 0.0 | 7.0 | 0.00 | 0.00 | 0.00 | 42 | 1012.8 |
| 20260903224404 | 97 | 172 | 0.0 | 0.0 | 0.00 | 0.00 | 0.00 | 42 | 1012.8 |
| 20260903223904 | 98 | 225 | 0.0 | 1.0 | 0.00 | 0.00 | 0.00 | 41 | 1012.8 |
| 20260903222904 | 99 | 232 | 2.0 | 7.0 | 0.00 | 0.00 | 0.00 | 40 | 1012.8 |
| 20260903222404 | 99 | 227 | 0.0 | 0.0 | 0.00 | 0.00 | 0.00 | 41 | 1012.8 |
| 20260903221405 | 99 | 194 | 0.0 | 0.0 | 0.00 | 0.00 | 0.00 | 40 | 1012.9 |
| 20260903220904 | 99 | 191 | 0.0 | 0.0 | 0.00 | 0.00 | 0.00 | 41 | 1012.9 |
| 20260903215905 | 98 | 196 | 0.0 | 0.0 | 0.00 | 0.00 | 0.00 | 40 | 1013.0 |
| 20260903214904 | 97 | 194 | 0.0 | 0.0 | 0.00 | 0.00 | 0.00 | 40 | 1013.1 |
| 20260903214405 | 97 | 148 | 0.0 | 0.0 | 0.00 | 0.00 | 0.00 | 40 | 1013.1 |
| 20260903213905 | 98 | 202 | 0.0 | 0.0 | 0.00 | 0.00 | 0.00 | 39 | 1013.1 |
| 20260903212904 | 100 | 213 | 1.0 | 6.0 | 0.00 | 0.00 | 0.00 | 37 | 1013.1 |
| 20260903212405 | 101 | 193 | 2.0 | 6.0 | 0.00 | 0.00 | 0.00 | 37 | 1013.1 |
| 20260903211904 | 100 | 148 | 0.0 | 5.0 | 0.00 | 0.00 | 0.00 | 37 | 1013.1 |
| 20260903211405 | 100 | 152 | 0.0 | 6.0 | 0.00 | 0.00 | 0.00 | 38 | 1013.2 |
| 20260903210404 | 100 | 199 | 0.0 | 0.0 | 0.00 | 0.00 | 0.00 | 37 | 1013.4 |
| 20260903205904 | 100 | 199 | 0.0 | 0.0 | 0.00 | 0.00 | 0.00 | 37 | 1013.3 |
| 20260903205405 | 100 | 154 | 2.0 | 6.0 | 0.00 | 0.00 | 0.00 | 38 | 1013.5 |
| 20260903204904 | 99 | 195 | 3.0 | 9.0 | 0.00 | 0.00 | 0.00 | 37 | 1013.5 |
| 20260903204404 | 99 | 208 | 2.0 | 6.0 | 0.00 | 0.00 | 0.00 | 38 | 1013.5 |
| 20260903203904 | 98 | 195 | 0.0 | 0.0 | 0.00 | 0.00 | 0.00 | 39 | 1013.6 |
| 20260903203404 | 98 | 206 | 0.0 | 0.0 | 0.00 | 0.00 | 0.00 | 38 | 1013.6 |
| 20260903202904 | 98 | 184 | 0.0 | 0.0 | 0.00 | 0.00 | 0.00 | 39 | 1013.6 |
| 20260903202404 | 99 | 247 | 0.0 | 0.0 | 0.00 | 0.00 | 0.00 | 37 | 1013.7 |
| 20260903201904 | 100 | 212 | 0.0 | 0.0 | 0.00 | 0.00 | 0.00 | 37 | 1013.7 |
| 20260903201404 | 100 | 163 | 1.0 | 6.0 | 0.00 | 0.00 | 0.00 | 37 | 1013.7 |
| 20260903200904 | 101 | 212 | 0.0 | 2.0 | 0.00 | 0.00 | 0.00 | 37 | 1013.7 |
| 20260903200405 | 101 | 207 | 3.0 | 10.0 | 0.00 | 0.00 | 0.00 | 38 | 1013.7 |
| 20260903195404 | 100 | 208 | 0.0 | 5.0 | 0.00 | 0.00 | 0.00 | 40 | 1013.9 |
| 20260903194905 | 100 | 197 | 2.0 | 8.0 | 0.00 | 0.00 | 0.00 | 39 | 1013.9 |
| 20260903194405 | 100 | 191 | 1.0 | 6.0 | 0.00 | 0.00 | 0.00 | 39 | 1013.9 |
| 20260903193905 | 99 | 186 | 0.0 | 0.0 | 0.00 | 0.00 | 0.00 | 40 | 1013.9 |
| 20260903192404 | 99 | 226 | 0.0 | 2.0 | 0.00 | 0.00 | 0.00 | 39 | 1014.1 |
| 20260903191904 | 100 | 222 | 2.0 | 8.0 | 0.00 | 0.00 | 0.00 | 39 | 1014.1 |
| 20260903191404 | 100 | 174 | 0.0 | 0.0 | 0.00 | 0.00 | 0.00 | 39 | 1014.1 |
| 20260903190904 | 99 | 236 | 0.0 | 0.0 | 0.00 | 0.00 | 0.00 | 40 | 1014.1 |
| 20260903190404 | 99 | 248 | 0.0 | 0.0 | 0.00 | 0.00 | 0.00 | 41 | 1014.2 |
| 20260903185905 | 98 | 180 | 0.0 | 0.0 | 0.00 | 0.00 | 0.00 | 45 | 1014.2 |
| 20260903185404 | 97 | 180 | 0.0 | 3.0 | 0.00 | 0.00 | 0.00 | 44 | 1014.3 |
| 20260903184904 | 97 | 272 | 2.0 | 6.0 | 0.00 | 0.00 | 0.00 | 43 | 1014.4 |
| 20260903184404 | 97 | 57 | 0.0 | 0.0 | 0.00 | 0.00 | 0.00 | 42 | 1014.4 |
| 20260903183904 | 98 | 241 | 0.0 | 0.0 | 0.00 | 0.00 | 0.00 | 44 | 1014.5 |
| 20260903183404 | 98 | 241 | 0.0 | 0.0 | 0.00 | 0.00 | 0.00 | 42 | 1014.4 |
| 20260903182405 | 99 | 225 | 1.0 | 23.0 | 0.00 | 0.00 | 0.00 | 41 | 1014.6 |
| 20260903180904 | 98 | 228 | 2.0 | 8.0 | 0.00 | 0.00 | 0.00 | 42 | 1014.6 |
| 20260903175904 | 98 | 242 | 1.0 | 7.0 | 0.00 | 0.00 | 0.00 | 42 | 1014.7 |
| 20260903174904 | 97 | 215 | 0.0 | 3.0 | 0.00 | 0.00 | 0.00 | 46 | 1014.9 |
| 20260903174404 | 96 | 211 | 1.0 | 5.0 | 0.00 | 0.00 | 0.00 | 46 | 1015.0 |
| 20260903173904 | 96 | 244 | 0.0 | 0.0 | 0.00 | 0.00 | 0.00 | 47 | 1015.1 |
| 20260903173404 | 96 | 224 | 0.0 | 0.0 | 0.00 | 0.00 | 0.00 | 44 | 1015.1 |
| 20260903172405 | 97 | 264 | 0.0 | 0.0 | 0.00 | 0.00 | 0.00 | 44 | 1015.2 |
| 20260903171404 | 98 | 241 | 0.0 | 6.0 | 0.00 | 0.00 | 0.00 | 42 | 1015.3 |
| 20260903170904 | 98 | 267 | 0.0 | 5.0 | 0.00 | 0.00 | 0.00 | 42 | 1015.3 |
| 20260903170405 | 98 | 227 | 3.0 | 8.0 | 0.00 | 0.00 | 0.00 | 44 | 1015.4 |
| 20260903165904 | 98 | 138 | 2.0 | 8.0 | 0.00 | 0.00 | 0.00 | 44 | 1015.4 |
| 20260903165404 | 98 | 177 | 1.0 | 8.0 | 0.00 | 0.00 | 0.00 | 46 | 1015.5 |
| 20260903164904 | 98 | 244 | 0.0 | 5.0 | 0.00 | 0.00 | 0.00 | 47 | 1015.5 |
| 20260903164404 | 97 | 252 | 0.0 | 0.0 | 0.00 | 0.00 | 0.00 | 46 | 1015.6 |
| 20260903162904 | 96 | 267 | 3.0 | 8.0 | 0.00 | 0.00 | 0.00 | 50 | 1015.8 |
| 20260903162404 | 96 | 247 | 0.0 | 0.0 | 0.00 | 0.00 | 0.00 | 50 | 1015.8 |
| 20260903161404 | 95 | 228 | 2.0 | 7.0 | 0.00 | 0.00 | 0.00 | 49 | 1015.9 |
| 20260903160904 | 95 | 276 | 0.0 | 0.0 | 0.00 | 0.00 | 0.00 | 50 | 1016.0 |
| 20260903155904 | 94 | 255 | 0.0 | 0.0 | 0.00 | 0.00 | 0.00 | 52 | 1016.0 |
| 20260903155404 | 94 | 234 | 2.0 | 7.0 | 0.00 | 0.00 | 0.00 | 53 | 1016.0 |
| 20260903154904 | 94 | 255 | 0.0 | 7.0 | 0.00 | 0.00 | 0.00 | 54 | 1016.0 |
| 20260903153404 | 93 | 258 | 1.0 | 7.0 | 0.00 | 0.00 | 0.00 | 55 | 1016.0 |
| 20260903152904 | 93 | 266 | 3.0 | 8.0 | 0.00 | 0.00 | 0.00 | 53 | 1016.1 |
| 20260903152405 | 93 | 250 | 3.0 | 8.0 | 0.00 | 0.00 | 0.00 | 55 | 1016.1 |
| 20260903150904 | 91 | 209 | 0.0 | 0.0 | 0.00 | 0.00 | 0.00 | 58 | 1016.0 |
| 20260903150404 | 90 | 200 | 0.0 | 0.0 | 0.00 | 0.00 | 0.00 | 61 | 1016.1 |
| 20260903145904 | 90 | 202 | 0.0 | 0.0 | 0.00 | 0.00 | 0.00 | 61 | 1016.1 |
| 20260903145404 | 89 | 215 | 0.0 | 0.0 | 0.00 | 0.00 | 0.00 | 63 | 1016.1 |
| 20260903144904 | 88 | 215 | 0.0 | 0.0 | 0.00 | 0.00 | 0.00 | 65 | 1016.1 |
| 20260903143904 | 87 | 231 | 0.0 | 0.0 | 0.00 | 0.00 | 0.00 | 66 | 1016.1 |
| 20260903143404 | 86 | 212 | 0.0 | 0.0 | 0.00 | 0.00 | 0.00 | 67 | 1016.1 |
| 20260903142904 | 85 | 156 | 0.0 | 0.0 | 0.00 | 0.00 | 0.00 | 69 | 1016.1 |
| 20260903141903 | 84 | 215 | 0.0 | 0.0 | 0.00 | 0.00 | 0.00 | 70 | 1016.2 |
| 20260903141404 | 84 | 199 | 0.0 | 0.0 | 0.00 | 0.00 | 0.00 | 71 | 1016.2 |
| 20260903140904 | 83 | 233 | 0.0 | 1.0 | 0.00 | 0.00 | 0.00 | 72 | 1016.2 |
| 20260903140404 | 82 | 210 | 0.0 | 0.0 | 0.00 | 0.00 | 0.00 | 73 | 1016.2 |
| 20260903135904 | 82 | 163 | 0.0 | 0.0 | 0.00 | 0.00 | 0.00 | 75 | 1016.2 |
| 20260903135404 | 81 | 163 | 0.0 | 0.0 | 0.00 | 0.00 | 0.00 | 75 | 1016.2 |
| 20260903134904 | 80 | 163 | 0.0 | 0.0 | 0.00 | 0.00 | 0.00 | 76 | 1016.2 |
| 20260903134404 | 80 | 163 | 0.0 | 0.0 | 0.00 | 0.00 | 0.00 | 77 | 1016.3 |
| 20260903133904 | 79 | 163 | 0.0 | 0.0 | 0.00 | 0.00 | 0.00 | 78 | 1016.4 |
| 20260903133403 | 79 | 163 | 0.0 | 0.0 | 0.00 | 0.00 | 0.00 | 79 | 1016.4 |
| 20260903132404 | 78 | 163 | 0.0 | 0.0 | 0.00 | 0.00 | 0.00 | 80 | 1016.4 |
| 20260903131904 | 78 | 167 | 0.0 | 0.0 | 0.00 | 0.00 | 0.00 | 81 | 1016.5 |
| 20260903131404 | 77 | 168 | 0.0 | 0.0 | 0.00 | 0.00 | 0.00 | 82 | 1016.5 |
| 20260903130904 | 77 | 181 | 0.0 | 0.0 | 0.00 | 0.00 | 0.00 | 82 | 1016.5 |
| 20260903130404 | 76 | 182 | 0.0 | 0.0 | 0.00 | 0.00 | 0.00 | 82 | 1016.4 |
| 20260903125904 | 76 | 183 | 0.0 | 0.0 | 0.00 | 0.00 | 0.00 | 82 | 1016.4 |
| 20260903124904 | 75 | 217 | 0.0 | 0.0 | 0.00 | 0.00 | 0.00 | 82 | 1016.5 |
| 20260903124404 | 74 | 217 | 0.0 | 0.0 | 0.00 | 0.00 | 0.00 | 82 | 1016.5 |
| 20260903123904 | 74 | 217 | 0.0 | 0.0 | 0.00 | 0.00 | 0.00 | 82 | 1016.5 |
| 20260903123404 | 74 | 217 | 0.0 | 0.0 | 0.00 | 0.00 | 0.00 | 82 | 1016.5 |
| 20260903122904 | 73 | 225 | 0.0 | 0.0 | 0.00 | 0.00 | 0.00 | 82 | 1016.4 |
| 20260903122403 | 73 | 225 | 0.0 | 0.0 | 0.00 | 0.00 | 0.00 | 82 | 1016.4 |
| 20260903121904 | 73 | 225 | 0.0 | 0.0 | 0.00 | 0.00 | 0.00 | 82 | 1016.4 |
| 20260903120903 | 72 | 225 | 0.0 | 0.0 | 0.00 | 0.00 | 0.00 | 82 | 1016.3 |
| 20260903115903 | 72 | 225 | 0.0 | 0.0 | 0.00 | 0.00 | 0.00 | 82 | 1016.2 |
| 20260903115403 | 72 | 225 | 0.0 | 0.0 | 0.00 | 0.00 | 0.00 | 82 | 1016.2 |
| 20260903114904 | 72 | 225 | 0.0 | 0.0 | 0.00 | 0.00 | 0.00 | 82 | 1016.2 |
| 20260903114404 | 72 | 225 | 0.0 | 0.0 | 0.00 | 0.00 | 0.00 | 82 | 1016.1 |
| 20260903113903 | 71 | 225 | 0.0 | 0.0 | 0.00 | 0.00 | 0.00 | 82 | 1016.1 |
| 20260903112904 | 71 | 225 | 0.0 | 0.0 | 0.00 | 0.00 | 0.00 | 82 | 1016.1 |
| 20260903112404 | 72 | 225 | 0.0 | 0.0 | 0.00 | 0.00 | 0.00 | 82 | 1016.1 |
| 20260903111903 | 72 | 225 | 0.0 | 0.0 | 0.00 | 0.00 | 0.00 | 82 | 1016.1 |
| 20260903111403 | 71 | 225 | 0.0 | 0.0 | 0.00 | 0.00 | 0.00 | 82 | 1016.0 |
| 20260903110903 | 71 | 225 | 0.0 | 0.0 | 0.00 | 0.00 | 0.00 | 82 | 1016.0 |
| 20260903103904 | 72 | 225 | 0.0 | 0.0 | 0.00 | 0.00 | 0.00 | 82 | 1015.9 |
| 20260903103404 | 72 | 225 | 0.0 | 0.0 | 0.00 | 0.00 | 0.00 | 82 | 1015.9 |
| 20260903102904 | 72 | 225 | 0.0 | 0.0 | 0.00 | 0.00 | 0.00 | 82 | 1015.9 |
| 20260903102403 | 72 | 225 | 0.0 | 0.0 | 0.00 | 0.00 | 0.00 | 82 | 1015.9 |
| 20260903101904 | 72 | 225 | 0.0 | 0.0 | 0.00 | 0.00 | 0.00 | 82 | 1015.8 |
| 20260903101404 | 72 | 225 | 0.0 | 0.0 | 0.00 | 0.00 | 0.00 | 82 | 1015.8 |
| 20260903100903 | 72 | 225 | 0.0 | 0.0 | 0.00 | 0.00 | 0.00 | 82 | 1015.7 |
| 20260903100404 | 72 | 225 | 0.0 | 0.0 | 0.00 | 0.00 | 0.00 | 82 | 1015.7 |
| 20260903095403 | 72 | 225 | 0.0 | 0.0 | 0.00 | 0.00 | 0.00 | 82 | 1015.7 |
| 20260903094904 | 72 | 225 | 0.0 | 0.0 | 0.00 | 0.00 | 0.00 | 82 | 1015.6 |
| 20260903094403 | 72 | 225 | 0.0 | 0.0 | 0.00 | 0.00 | 0.00 | 82 | 1015.6 |
| 20260903093904 | 72 | 225 | 0.0 | 0.0 | 0.00 | 0.00 | 0.00 | 82 | 1015.6 |
| 20260903093404 | 72 | 225 | 0.0 | 0.0 | 0.00 | 0.00 | 0.00 | 82 | 1015.5 |
| 20260903092905 | 72 | 225 | 0.0 | 0.0 | 0.00 | 0.00 | 0.00 | 82 | 1015.6 |
| 20260903092404 | 72 | 225 | 0.0 | 0.0 | 0.00 | 0.00 | 0.00 | 82 | 1015.5 |
| 20260903091904 | 72 | 225 | 0.0 | 0.0 | 0.00 | 0.00 | 0.00 | 82 | 1015.6 |
| 20260903091403 | 72 | 225 | 0.0 | 0.0 | 0.00 | 0.00 | 0.00 | 82 | 1015.5 |
| 20260903090905 | 73 | 225 | 0.0 | 0.0 | 0.00 | 0.00 | 0.00 | 82 | 1015.4 |
| 20260903090405 | 73 | 225 | 0.0 | 0.0 | 0.00 | 0.00 | 0.00 | 81 | 1015.4 |
| 20260903085905 | 73 | 225 | 0.0 | 0.0 | 0.00 | 0.00 | 0.00 | 81 | 1015.4 |
| 20260903085405 | 73 | 225 | 0.0 | 0.0 | 0.00 | 0.00 | 0.00 | 82 | 1015.4 |
| 20260903084905 | 73 | 225 | 0.0 | 0.0 | 0.00 | 0.00 | 0.00 | 82 | 1015.3 |
| 20260903084406 | 73 | 225 | 0.0 | 0.0 | 0.00 | 0.00 | 0.00 | 82 | 1015.3 |
| 20260903083905 | 73 | 225 | 0.0 | 0.0 | 0.00 | 0.00 | 0.00 | 81 | 1015.3 |
| 20260903083405 | 73 | 225 | 0.0 | 0.0 | 0.00 | 0.00 | 0.00 | 81 | 1015.3 |
| 20260903082905 | 73 | 225 | 0.0 | 0.0 | 0.00 | 0.00 | 0.00 | 81 | 1015.2 |
| 20260903082405 | 73 | 225 | 0.0 | 0.0 | 0.00 | 0.00 | 0.00 | 81 | 1015.2 |
| 20260903081906 | 73 | 225 | 0.0 | 0.0 | 0.00 | 0.00 | 0.00 | 81 | 1015.2 |
| 20260903080905 | 73 | 225 | 0.0 | 0.0 | 0.00 | 0.00 | 0.00 | 81 | 1015.3 |
| 20260903080405 | 73 | 225 | 0.0 | 0.0 | 0.00 | 0.00 | 0.00 | 81 | 1015.3 |
| 20260903075905 | 73 | 225 | 0.0 | 0.0 | 0.00 | 0.00 | 0.00 | 81 | 1015.3 |
| 20260903075405 | 73 | 225 | 0.0 | 0.0 | 0.00 | 0.00 | 0.00 | 81 | 1015.3 |
| 20260903073906 | 74 | 225 | 0.0 | 0.0 | 0.00 | 0.00 | 0.00 | 81 | 1015.1 |
| 20260903073405 | 74 | 225 | 0.0 | 0.0 | 0.00 | 0.00 | 0.00 | 81 | 1015.1 |
| 20260903072905 | 74 | 225 | 0.0 | 0.0 | 0.00 | 0.00 | 0.00 | 81 | 1015.1 |
| 20260903071405 | 74 | 225 | 0.0 | 0.0 | 0.00 | 0.00 | 0.00 | 81 | 1015.0 |
| 20260903070405 | 74 | 225 | 0.0 | 0.0 | 0.00 | 0.00 | 0.00 | 80 | 1015.0 |
| 20260903065405 | 74 | 225 | 0.0 | 0.0 | 0.00 | 0.00 | 0.00 | 80 | 1015.0 |
| 20260903064905 | 74 | 225 | 0.0 | 0.0 | 0.00 | 0.00 | 0.00 | 80 | 1015.0 |
| 20260903064405 | 74 | 225 | 0.0 | 0.0 | 0.00 | 0.00 | 0.00 | 80 | 1015.0 |
| 20260903063905 | 74 | 225 | 0.0 | 0.0 | 0.00 | 0.00 | 0.00 | 80 | 1015.1 |
| 20260903063405 | 74 | 225 | 0.0 | 0.0 | 0.00 | 0.00 | 0.00 | 80 | 1015.1 |
| 20260903062905 | 74 | 225 | 0.0 | 0.0 | 0.00 | 0.00 | 0.00 | 80 | 1015.1 |
| 20260903062405 | 74 | 225 | 0.0 | 0.0 | 0.00 | 0.00 | 0.00 | 80 | 1015.2 |
| 20260903061905 | 74 | 225 | 0.0 | 0.0 | 0.00 | 0.00 | 0.00 | 80 | 1015.2 |
| 20260903061405 | 75 | 225 | 0.0 | 0.0 | 0.00 | 0.00 | 0.00 | 79 | 1015.2 |
| 20260903060905 | 75 | 225 | 0.0 | 0.0 | 0.00 | 0.00 | 0.00 | 79 | 1015.2 |
| 20260903060405 | 75 | 225 | 0.0 | 0.0 | 0.00 | 0.00 | 0.00 | 79 | 1015.1 |
| 20260903055905 | 75 | 225 | 0.0 | 0.0 | 0.00 | 0.00 | 0.00 | 79 | 1015.1 |
| 20260903055405 | 75 | 225 | 0.0 | 0.0 | 0.00 | 0.00 | 0.00 | 79 | 1015.2 |
| 20260903054905 | 76 | 225 | 0.0 | 0.0 | 0.00 | 0.00 | 0.00 | 78 | 1015.1 |
| 20260903054405 | 76 | 225 | 0.0 | 0.0 | 0.00 | 0.00 | 0.00 | 78 | 1015.1 |
| 20260903053905 | 76 | 225 | 0.0 | 0.0 | 0.00 | 0.00 | 0.00 | 77 | 1015.2 |
| 20260903053404 | 77 | 225 | 0.0 | 0.0 | 0.00 | 0.00 | 0.00 | 77 | 1015.2 |
| 20260903052405 | 77 | 225 | 0.0 | 0.0 | 0.00 | 0.00 | 0.00 | 77 | 1015.1 |
| 20260903051405 | 78 | 225 | 0.0 | 0.0 | 0.00 | 0.00 | 0.00 | 77 | 1015.1 |
| 20260903050405 | 78 | 225 | 0.0 | 0.0 | 0.00 | 0.00 | 0.00 | 77 | 1015.1 |
| 20260903045905 | 78 | 225 | 0.0 | 0.0 | 0.00 | 0.00 | 0.00 | 77 | 1015.1 |
| 20260903044905 | 78 | 225 | 0.0 | 0.0 | 0.00 | 0.00 | 0.00 | 76 | 1015.1 |
| 20260903044405 | 79 | 225 | 0.0 | 0.0 | 0.00 | 0.00 | 0.00 | 76 | 1015.1 |
| 20260903043904 | 79 | 225 | 0.0 | 0.0 | 0.00 | 0.00 | 0.00 | 75 | 1015.1 |
| 20260903043405 | 79 | 225 | 0.0 | 0.0 | 0.00 | 0.00 | 0.00 | 75 | 1015.0 |
| 20260903042905 | 79 | 225 | 0.0 | 0.0 | 0.00 | 0.00 | 0.00 | 75 | 1014.9 |
| 20260903042405 | 79 | 225 | 0.0 | 0.0 | 0.00 | 0.00 | 0.00 | 74 | 1015.0 |
| 20260903041405 | 79 | 225 | 0.0 | 0.0 | 0.00 | 0.00 | 0.00 | 74 | 1015.0 |
| 20260903040904 | 80 | 225 | 0.0 | 0.0 | 0.00 | 0.00 | 0.00 | 74 | 1015.1 |
| 20260903040405 | 80 | 225 | 0.0 | 0.0 | 0.00 | 0.00 | 0.00 | 73 | 1015.1 |
| 20260903035905 | 80 | 225 | 0.0 | 0.0 | 0.00 | 0.00 | 0.00 | 73 | 1015.0 |
| 20260903035404 | 80 | 225 | 0.0 | 0.0 | 0.00 | 0.00 | 0.00 | 73 | 1015.0 |
| 20260903034405 | 80 | 225 | 0.0 | 0.0 | 0.00 | 0.00 | 0.00 | 72 | 1015.0 |
| 20260903033905 | 80 | 225 | 0.0 | 0.0 | 0.00 | 0.00 | 0.00 | 72 | 1015.0 |
| 20260903033405 | 80 | 225 | 0.0 | 0.0 | 0.00 | 0.00 | 0.00 | 72 | 1014.9 |
| 20260903032904 | 80 | 225 | 0.0 | 0.0 | 0.00 | 0.00 | 0.00 | 72 | 1015.0 |
| 20260903032405 | 80 | 225 | 0.0 | 0.0 | 0.00 | 0.00 | 0.00 | 72 | 1015.0 |
| 20260903031905 | 80 | 225 | 0.0 | 0.0 | 0.00 | 0.00 | 0.00 | 72 | 1014.9 |
| 20260903031405 | 80 | 225 | 0.0 | 0.0 | 0.00 | 0.00 | 0.00 | 72 | 1015.0 |
| 20260903030905 | 80 | 225 | 0.0 | 0.0 | 0.00 | 0.00 | 0.00 | 71 | 1015.1 |
| 20260903030405 | 81 | 225 | 0.0 | 0.0 | 0.00 | 0.00 | 0.00 | 71 | 1015.1 |
| 20260903024405 | 82 | 225 | 0.0 | 0.0 | 0.00 | 0.00 | 0.00 | 69 | 1014.9 |